Location: Asheville, NC
(35.6000°N, 82.5500°W)
Time: 06:22:21
(UTC-05:00)

NUDT-PHONESAT - Pass Details

Date: 08 January 2018
Orbit: 494 x 513 km, 97.4° (Epoch: 19 January)

Event Time Altitude Azimuth Distance (km) Brightness Sun altitude
Rises 06:02:43 0° 29° (NNE) 2,606 ? -19.4°
Reaches altitude 10° 06:05:14 10° 46° (NE) 1,713 ? -18.9°
Maximum altitude 06:08:01 20° 95° (E) 1,194 ? -18.3°
Drops below altitude 10° 06:10:47 10° 145° (SE) 1,695 ? -17.8°
Sets 06:13:14 0° 162° (SSE) 2,569 ? -17.3°
